Bremerton, WA

5:54 AM PDT on June 24, 2017 (GMT -0700)
Bremerton National

Weather History for KPWT - November, 2013

Change the Weather History Date:

Saturday, November 30, 2013

  Actual Average Record
Temperature  
Mean Temperature 45 °F -  
Max Temperature 46 °F 43 °F 55 °F (2002)
Min Temperature 44 °F 33 °F 23 °F (2014)
Degree Days  
Heating Degree Days 20    
Moisture  
Dew Point 43 °F    
Average Humidity 89    
Maximum Humidity 93    
Minimum Humidity 81    
Precipitation  
Precipitation 0.00 in - - ()
Sea Level Pressure  
Sea Level Pressure 30.28 in    
Wind  
Wind Speed 10 mph (South)    
Max Wind Speed 17 mph    
Max Gust Speed 22 mph    
Visibility 8 miles    
Events      
Averages and records for this station are not official NWS values.
T = Trace of Precipitation, MM = Missing Value Source: NWS Daily Summary

Daily Weather History Graph

Daily Weather History Graph

Search for Another Location

Airport or City:

Trip Planner

Search our weather history database for the weather conditions in past years. The results will help you decide how hot, cold, wet, or windy it might be!

Date:

Astronomy

Nov. 30, 2013 Rise Set
Actual Time 7:37 AM PST 4:22 PM PST
Civil Twilight 7:02 AM PST 4:57 PM PST
Nautical Twilight 6:23 AM PST 5:35 PM PST
Astronomical Twilight 5:46 AM PST 6:12 PM PST
Moon 4:45 AM PST (11/30) 2:58 PM PST (11/30)
Length of Visible Light 9h 55m
Length of Day
8h 45m
Waning Crescent, 6% of the Moon is Illuminated
Nov 30
Waning Crescent
Dec 2
New
Dec 9
First Quarter
Dec 17
Full
Dec 25
Last Quarter

Hourly Weather History & Observations

Time (PST) Temp. Windchill Dew Point Humidity Pressure Visibility Wind Dir Wind Speed Gust Speed Precip Events Conditions
12:15 AM 44.6 °F 41.4 °F 42.8 °F 93% 30.33 in 10.0 mi South 5.8 mph - N/A   Overcast
12:35 AM 44.6 °F 40.2 °F 42.8 °F 93% 30.32 in 10.0 mi South 8.1 mph - N/A   Overcast
12:55 AM 44.6 °F 39.7 °F 42.8 °F 93% 30.33 in 10.0 mi South 9.2 mph - N/A   Overcast
1:15 AM 44.6 °F 38.8 °F 42.8 °F 93% 30.32 in 10.0 mi South 11.5 mph - N/A   Overcast
1:35 AM 44.6 °F 42.2 °F 41.0 °F 87% 30.33 in 10.0 mi South 4.6 mph - N/A   Overcast
1:55 AM 44.6 °F 39.7 °F 41.0 °F 87% 30.33 in 10.0 mi South 9.2 mph - N/A   Overcast
2:15 AM 44.6 °F 40.2 °F 41.0 °F 87% 30.33 in 10.0 mi South 8.1 mph - N/A   Overcast
2:35 AM 44.6 °F 39.7 °F 41.0 °F 87% 30.34 in 10.0 mi South 9.2 mph - N/A   Overcast
2:55 AM 44.6 °F 38.8 °F 42.8 °F 93% 30.33 in 10.0 mi South 11.5 mph - N/A   Overcast
3:15 AM 44.6 °F 39.7 °F 41.0 °F 87% 30.33 in 10.0 mi South 9.2 mph 17.3 mph N/A   Overcast
3:35 AM 44.6 °F 38.8 °F 41.0 °F 87% 30.34 in 10.0 mi South 11.5 mph - N/A   Overcast
3:55 AM 44.6 °F 38.8 °F 41.0 °F 87% 30.33 in 10.0 mi South 11.5 mph 17.3 mph N/A   Overcast
4:15 AM 44.6 °F 39.7 °F 41.0 °F 87% 30.33 in 10.0 mi South 9.2 mph - N/A   Overcast
4:35 AM 44.6 °F 40.2 °F 41.0 °F 87% 30.33 in 10.0 mi South 8.1 mph - N/A   Overcast
4:55 AM 44.6 °F 39.7 °F 41.0 °F 87% 30.32 in 10.0 mi South 9.2 mph - N/A   Overcast
5:15 AM 44.6 °F 39.2 °F 41.0 °F 87% 30.33 in 10.0 mi South 10.4 mph - N/A   Overcast
5:35 AM 44.6 °F 38.8 °F 41.0 °F 87% 30.32 in 10.0 mi South 11.5 mph 16.1 mph N/A   Overcast
5:55 AM 44.6 °F 39.7 °F 41.0 °F 87% 30.32 in 10.0 mi South 9.2 mph 18.4 mph N/A   Overcast
6:15 AM 44.6 °F 39.7 °F 41.0 °F 87% 30.32 in 10.0 mi South 9.2 mph - N/A   Overcast
6:35 AM 44.6 °F 39.2 °F 41.0 °F 87% 30.32 in 10.0 mi South 10.4 mph - N/A   Overcast
6:55 AM 44.6 °F 39.7 °F 41.0 °F 87% 30.33 in 10.0 mi South 9.2 mph - N/A   Overcast
7:15 AM 44.6 °F 39.2 °F 41.0 °F 87% 30.32 in 10.0 mi South 10.4 mph 18.4 mph N/A   Overcast
7:35 AM 44.6 °F 40.2 °F 41.0 °F 87% 30.32 in 10.0 mi South 8.1 mph - N/A   Overcast
7:55 AM 44.6 °F 39.2 °F 41.0 °F 87% 30.33 in 10.0 mi South 10.4 mph - N/A   Overcast
8:15 AM 44.6 °F 38.4 °F 41.0 °F 87% 30.32 in 10.0 mi South 12.7 mph - N/A   Overcast
8:35 AM 44.6 °F 38.8 °F 41.0 °F 87% 30.32 in 10.0 mi South 11.5 mph 19.6 mph N/A   Overcast
8:55 AM 44.6 °F 39.2 °F 41.0 °F 87% 30.32 in 10.0 mi South 10.4 mph - N/A   Overcast
9:15 AM 44.6 °F 38.8 °F 41.0 °F 87% 30.32 in 10.0 mi South 11.5 mph 20.7 mph N/A   Overcast
9:35 AM 46.4 °F 41.1 °F 41.0 °F 81% 30.33 in 10.0 mi South 11.5 mph - N/A   Overcast
9:55 AM 46.4 °F 41.1 °F 41.0 °F 81% 30.32 in 10.0 mi South 11.5 mph 18.4 mph N/A   Overcast
10:15 AM 46.4 °F 40.4 °F 42.8 °F 87% 30.32 in 10.0 mi South 13.8 mph - N/A   Overcast
10:35 AM 46.4 °F 40.4 °F 42.8 °F 87% 30.33 in 10.0 mi South 13.8 mph 20.7 mph N/A   Overcast
10:55 AM 46.4 °F 39.8 °F 41.0 °F 81% 30.32 in 10.0 mi South 16.1 mph 19.6 mph N/A   Overcast
11:15 AM 46.4 °F 40.1 °F 41.0 °F 81% 30.31 in 10.0 mi South 15.0 mph 20.7 mph N/A   Overcast
11:35 AM 46.4 °F 40.1 °F 41.0 °F 81% 30.32 in 10.0 mi South 15.0 mph 20.7 mph N/A   Overcast
11:55 AM 46.4 °F 40.7 °F 42.8 °F 87% 30.32 in 10.0 mi South 12.7 mph - N/A   Overcast
12:15 PM 46.4 °F 39.8 °F 42.8 °F 87% 30.31 in 10.0 mi South 16.1 mph 20.7 mph N/A   Overcast
12:35 PM 46.4 °F 40.1 °F 42.8 °F 87% 30.30 in 10.0 mi South 15.0 mph - N/A   Overcast
12:55 PM 46.4 °F 39.8 °F 42.8 °F 87% 30.30 in 7.0 mi South 16.1 mph 19.6 mph N/A   Overcast
1:15 PM 46.4 °F 39.5 °F 42.8 °F 87% 30.29 in 4.0 mi South 17.3 mph - N/A   Overcast
1:35 PM 46.4 °F 39.5 °F 42.8 °F 87% 30.28 in 7.0 mi South 17.3 mph 21.9 mph N/A   Overcast
1:55 PM 46.4 °F 40.1 °F 42.8 °F 87% 30.29 in 7.0 mi South 15.0 mph 20.7 mph N/A   Overcast
2:15 PM 46.4 °F 39.5 °F 42.8 °F 87% 30.28 in 3.0 mi South 17.3 mph - N/A   Overcast
2:35 PM 46.4 °F 40.4 °F 42.8 °F 87% 30.27 in 3.0 mi South 13.8 mph 21.9 mph N/A   Overcast
2:55 PM 46.4 °F 39.8 °F 42.8 °F 87% 30.27 in 4.0 mi South 16.1 mph 20.7 mph N/A   Overcast
3:15 PM 46.4 °F 40.1 °F 42.8 °F 87% 30.27 in 7.0 mi South 15.0 mph 18.4 mph N/A   Overcast
3:35 PM 46.4 °F 40.7 °F 42.8 °F 87% 30.26 in 5.0 mi South 12.7 mph - N/A   Overcast
3:55 PM 46.4 °F 40.7 °F 42.8 °F 87% 30.26 in 4.0 mi South 12.7 mph - N/A   Overcast
4:15 PM 46.4 °F 40.7 °F 42.8 °F 87% 30.26 in 4.0 mi South 12.7 mph 17.3 mph N/A   Overcast
4:35 PM 46.4 °F 40.4 °F 42.8 °F 87% 30.26 in 6.0 mi South 13.8 mph 20.7 mph N/A   Overcast
4:55 PM 46.4 °F 41.1 °F 42.8 °F 87% 30.26 in 7.0 mi South 11.5 mph - N/A   Overcast
5:15 PM 46.4 °F 41.1 °F 44.6 °F 93% 30.27 in 10.0 mi South 11.5 mph - N/A   Overcast
5:35 PM 46.4 °F 41.5 °F 44.6 °F 93% 30.25 in 10.0 mi South 10.4 mph - N/A   Overcast
5:55 PM 46.4 °F 40.4 °F 44.6 °F 93% 30.25 in 3.0 mi South 13.8 mph 18.4 mph N/A   Overcast
6:15 PM 46.4 °F 41.1 °F 44.6 °F 93% 30.25 in 5.0 mi South 11.5 mph - N/A   Overcast
6:35 PM 46.4 °F 40.7 °F 44.6 °F 93% 30.23 in 5.0 mi South 12.7 mph - N/A   Overcast
6:55 PM 46.4 °F 41.1 °F 44.6 °F 93% 30.23 in 5.0 mi South 11.5 mph 18.4 mph N/A   Overcast
7:15 PM 46.4 °F 41.9 °F 44.6 °F 93% 30.23 in 4.0 mi South 9.2 mph - N/A   Overcast
7:35 PM 46.4 °F 41.1 °F 44.6 °F 93% 30.21 in 3.0 mi South 11.5 mph - N/A   Overcast
7:55 PM 46.4 °F 40.7 °F 44.6 °F 93% 30.22 in 2.0 mi South 12.7 mph - N/A   Overcast
8:15 PM 46.4 °F 41.9 °F 44.6 °F 93% 30.22 in 2.0 mi South 9.2 mph - N/A   Overcast
8:35 PM 46.4 °F 42.9 °F 44.6 °F 93% 30.20 in 4.0 mi South 6.9 mph - N/A   Overcast
8:55 PM 46.4 °F 42.4 °F 44.6 °F 93% 30.20 in 3.0 mi South 8.1 mph - N/A   Overcast
9:15 PM 46.4 °F 40.7 °F 44.6 °F 93% 30.20 in 3.0 mi South 12.7 mph - N/A   Overcast
9:35 PM 46.4 °F 41.9 °F 44.6 °F 93% 30.19 in 5.0 mi South 9.2 mph - N/A   Overcast
9:55 PM 46.4 °F 41.5 °F 44.6 °F 93% 30.18 in 5.0 mi South 10.4 mph - N/A   Overcast
10:15 PM 46.4 °F 41.9 °F 44.6 °F 93% 30.17 in 6.0 mi South 9.2 mph - N/A   Overcast
10:35 PM 46.4 °F 42.4 °F 44.6 °F 93% 30.15 in 6.0 mi South 8.1 mph - N/A   Overcast
10:55 PM 46.4 °F 41.5 °F 44.6 °F 93% 30.15 in 5.0 mi South 10.4 mph 16.1 mph N/A   Overcast
11:15 PM 46.4 °F 41.1 °F 44.6 °F 93% 30.14 in 4.0 mi South 11.5 mph - N/A   Overcast
11:35 PM 46.4 °F 40.7 °F 44.6 °F 93% 30.12 in 4.0 mi South 12.7 mph 17.3 mph N/A   Overcast
11:55 PM 46.4 °F 40.7 °F 42.8 °F 87% 30.12 in 5.0 mi South 12.7 mph - N/A   Overcast